Temp
7 6 5 5 4 4 4 3 3 3 1 3 1 1 1 1 1 -1 -0 -1 -0 -1 -1 -1 -2 -2 -2 -2 -2 -2 -2 -2
7 5 5 4 4 4 3 3 3 3 2 3 3 2 1 0 -0 -1 -1 -1 -1 -2 -2 -2 -2 -2 -2 -2 -3 -2 -2 -2
6 5 5 4 4 3 3 3 3 3 2 2 2 2 1 -0 -1 -1 -1 -2 -3 -2 -3 -2 -3 -2 -2 -3 -3 -3 -3 -3
5 5 4 4 4 4 3 3 3 3 2 2 2 1 -0 -1 -1 -2 -2 -3 -3 -2 -3 -3 -3 -3 -3 -4 -4 -4 -4 -4
2 3 4 4 3 3 3 2 2 2 2 1 0 -0 -1 -1 -2 -2 -2 -2 -3 -3 -4 -4 -5 -5 -5 -5 -5 -5 -5 -5
2 2 3 3 3 2 2 2 2 1 1 0 0 -1 -1 -2 -2 -2 -2 -2 -3 -5 -5 -5 -5 -5 -5 -5 -5 -4 -4 -5
2 2 2 2 2 2 1 1 0 0 -0 -1 -1 -1 -2 -2 -2 -2 -2 -4 -5 -5 -5 -5 -5 -5 -6 -6 -6 -6 -6 -7
0 -0 -1 0 1 0 0 -0 -1 -1 -2 -2 -2 -2 -2 -3 -3 -4 -5 -5 -5 -6 -5 -6 -6 -6 -7 -7 -8 -9 -9 -10
-0 -0 -0 -1 -1 -0 -1 -0 -1 -1 -2 -2 -3 -3 -3 -4 -4 -5 -5 -6 -6 -6 -7 -7 -7 -7 -8 -8 -9 -10 -11 -12
-0 -1 -2 -2 -2 -2 -2 -2 -2 -3 -3 -2 -3 -3 -4 -5 -5 -5 -6 -6 -7 -7 -7 -8 -8 -9 -10 -10 -12 -12 -12 -12
-1 -1 -1 -1 -2 -2 -2 -3 -3 -3 -4 -4 -5 -5 -6 -5 -6 -7 -7 -7 -7 -8 -8 -9 -10 -10 -11 -12 -12 -13 -13 -13
-1 -2 -2 -2 -2 -2 -3 -4 -4 -5 -5 -5 -5 -6 -6 -7 -8 -8 -8 -8 -8 -9 -10 -11 -11 -12 -13 -13 -13 -13 -13 -14
-1 -1 -1 -2 -3 -3 -4 -4 -4 -4 -5 -5 -6 -7 -8 -8 -8 -8 -8 -9 -9 -10 -11 -12 -13 -13 -13 -14 -14 -14 -14 -14
-1 -2 -3 -3 -3 -3 -4 -4 -4 -5 -6 -7 -7 -7 -7 -8 -9 -9 -9 -11 -11 -12 -13 -14 -14 -14 -15 -16 -16 -16 -16 -16
-3 -3 -3 -3 -3 -4 -5 -6 -7 -7 -8 -8 -8 -9 -9 -9 -10 -11 -12 -12 -13 -14 -14 -15 -16 -17 -17 -17 -17 -16 -16 -16
-3 -4 -4 -4 -4 -5 -7 -8 -9 -9 -8 -8 -9 -10 -10 -10 -11 -12 -13 -14 -15 -15 -16 -16 -17 -17 -17 -17 -16 -16 -16 -17
-4 -4 -4 -6 -7 -8 -8 -9 -9 -9 -9 -9 -10 -10 -10 -12 -12 -13 -13 -15 -15 -16 -16 -17 -17 -17 -17 -17 -16 -17 -17 -17
-4 -5 -8 -8 -9 -8 -9 -10 -9 -10 -10 -10 -10 -10 -11 -11 -12 -13 -14 -15 -15 -16 -17 -17 -17 -17 -17 -17 -17 -18 -18 -18
-5 -8 -9 -9 -9 -10 -10 -10 -10 -11 -11 -11 -11 -11 -11 -12 -12 -14 -14 -15 -16 -16 -17 -17 -17 -17 -17 -18 -18 -18 -18 -18
Height
3166 3165 3167 3169 3168 3165 3163 3159 3154 3151 3154 3156 3154 3152 3152 3150 3149 3143 3141 3140 3137 3133 3130 3127 3124 3122 3118 3115 3111 3108 3106 3102
3160 3162 3161 3163 3163 3162 3157 3155 3156 3154 3153 3151 3152 3151 3149 3145 3144 3138 3134 3131 3130 3126 3122 3119 3117 3112 3108 3105 3102 3098 3096 3094
3157 3156 3158 3159 3159 3155 3157 3155 3155 3154 3149 3148 3149 3146 3143 3139 3134 3132 3128 3122 3118 3117 3115 3109 3106 3102 3100 3097 3093 3089 3085 3084
3153 3152 3154 3156 3157 3156 3154 3152 3154 3153 3147 3144 3141 3139 3136 3133 3132 3127 3123 3119 3113 3108 3104 3100 3096 3094 3091 3087 3082 3079 3073 3072
3153 3150 3152 3154 3154 3153 3152 3149 3149 3148 3143 3139 3136 3134 3131 3127 3123 3117 3113 3109 3103 3099 3096 3091 3087 3082 3079 3074 3070 3066 3062 3058
3151 3150 3150 3151 3151 3150 3148 3144 3142 3140 3138 3136 3132 3127 3123 3117 3113 3107 3102 3097 3093 3089 3085 3081 3076 3071 3067 3063 3056 3052 3049 3044
3151 3149 3146 3147 3147 3145 3144 3142 3137 3133 3130 3126 3123 3119 3114 3109 3103 3097 3093 3088 3083 3080 3075 3069 3064 3058 3053 3047 3042 3037 3033 3029
3152 3149 3145 3142 3141 3140 3139 3137 3134 3131 3123 3117 3114 3108 3103 3098 3093 3089 3084 3078 3074 3070 3064 3058 3051 3044 3039 3033 3029 3024 3021 3016
3147 3145 3143 3140 3138 3135 3131 3129 3127 3123 3119 3113 3106 3100 3096 3090 3085 3079 3074 3068 3064 3058 3052 3046 3039 3034 3027 3022 3018 3013 3009 3006
3144 3143 3139 3136 3133 3130 3126 3122 3119 3117 3110 3105 3099 3093 3086 3081 3075 3068 3063 3059 3055 3048 3042 3036 3029 3022 3016 3011 3007 3004 2998 2996
3143 3140 3138 3134 3130 3126 3121 3117 3113 3108 3101 3096 3089 3082 3076 3070 3064 3058 3053 3050 3044 3037 3031 3025 3017 3011 3005 3000 2996 2993 2989 2986
3141 3135 3130 3127 3122 3120 3114 3110 3104 3099 3092 3086 3080 3072 3065 3061 3055 3049 3044 3039 3033 3026 3019 3013 3006 3000 2995 2990 2987 2983 2979 2977
3133 3130 3128 3124 3118 3114 3106 3100 3094 3089 3082 3075 3069 3062 3056 3053 3047 3040 3034 3028 3021 3013 3005 3001 2996 2991 2987 2983 2979 2974 2971 2968
3128 3125 3121 3116 3110 3103 3098 3091 3083 3075 3070 3064 3060 3053 3049 3043 3036 3029 3023 3016 3009 3004 2998 2993 2988 2984 2979 2974 2970 2966 2962 2959
3121 3117 3112 3106 3100 3093 3086 3080 3073 3068 3061 3054 3051 3044 3038 3034 3027 3021 3015 3009 3002 2996 2990 2986 2981 2977 2972 2966 2962 2959 2955 2951
3115 3110 3103 3095 3089 3083 3078 3072 3068 3063 3058 3049 3045 3036 3028 3023 3018 3013 3007 3001 2995 2990 2985 2980 2975 2971 2964 2959 2955 2950 2945 2940
3107 3101 3094 3087 3082 3077 3072 3067 3063 3055 3051 3044 3037 3029 3017 3013 3010 3005 3000 2994 2989 2984 2979 2974 2969 2963 2957 2951 2946 2941 2935 2928
3099 3092 3085 3080 3075 3071 3066 3060 3056 3050 3043 3036 3027 3021 3015 3009 3004 3000 2993 2988 2984 2979 2973 2967 2962 2957 2949 2941 2935 2929 2922 2917
3089 3085 3080 3075 3070 3064 3058 3052 3046 3040 3035 3028 3018 3012 3005 3001 2996 2992 2987 2983 2978 2973 2967 2961 2956 2950 2942 2933 2925 2919 2912 2906
Wind_Speed
15 14 9 14 16 20 18 22 29 20 20 21 19 22 25 30 32 27 39 32 36 37 38 40 40 41 43 40 39 39 36 36
22 21 22 23 21 22 22 22 25 24 27 26 26 29 33 32 31 33 35 38 42 37 39 43 39 45 45 44 43 40 40 38
19 26 26 21 19 20 19 22 24 22 29 31 28 38 36 34 33 36 41 45 45 49 48 46 46 40 43 42 41 42 43 42
20 23 20 17 19 19 21 23 24 24 30 35 39 37 37 37 40 48 53 55 53 38 41 42 43 41 39 42 43 44 48 47
1 12 12 12 12 15 18 23 25 28 32 34 36 37 39 49 49 39 37 38 40 40 39 40 41 44 44 45 47 50 51 53
11 11 12 15 16 19 24 28 32 32 35 35 40 45 46 47 44 44 43 45 44 42 44 45 48 50 51 50 52 54 56 57
10 15 19 19 21 25 25 26 30 34 36 40 42 41 40 43 50 53 52 49 48 48 50 52 53 53 54 56 57 58 56 53
1 2 8 20 23 22 22 24 26 30 38 42 39 45 51 54 50 50 49 51 51 50 52 51 54 57 57 57 53 47 46 39
7 13 16 21 26 27 29 31 31 34 37 42 47 53 53 49 50 50 53 50 50 50 53 54 56 56 53 52 45 38 36 36
14 9 16 18 24 30 37 38 35 32 39 45 53 54 51 49 54 54 48 48 48 52 54 53 53 52 48 44 40 38 40 36
8 12 19 24 30 34 34 39 42 39 45 52 46 48 49 49 45 45 48 48 50 52 53 53 48 46 42 39 37 36 37 34
14 15 19 25 34 40 35 44 45 45 49 49 48 43 43 43 44 48 49 51 52 50 47 43 39 37 33 32 32 30 31 31
25 27 30 37 41 42 46 46 46 49 47 47 39 39 40 41 44 47 49 51 49 47 46 44 39 36 33 31 33 35 38 39
28 33 34 39 42 43 45 47 45 44 43 42 39 39 42 42 43 49 49 46 46 43 41 37 34 33 33 32 32 32 34 36
33 33 41 44 46 47 44 38 39 40 39 35 42 46 50 47 47 42 44 45 44 41 35 32 33 32 33 34 34 35 36 36
34 42 45 47 45 37 36 36 33 34 33 34 49 51 48 52 45 44 47 44 41 38 35 33 32 32 32 35 37 37 37 39
39 45 45 38 35 31 35 34 31 40 40 51 50 43 34 40 37 41 42 38 38 37 36 36 34 35 37 42 42 41 42 42
43 42 28 27 31 35 30 32 37 37 43 46 47 41 42 36 46 47 39 32 37 39 36 36 39 40 41 45 45 44 45 43
37 25 27 27 39 31 37 44 44 35 35 40 48 50 45 38 45 37 32 32 38 36 37 39 43 40 42 44 46 42 39 38
Wind_Direction
233 235 203 216 234 252 254 271 288 304 284 299 287 292 298 305 297 291 297 296 299 300 300 299 300 307 305 306 298 296 292 291
201 207 209 217 220 238 254 266 270 280 287 288 292 301 302 285 287 289 291 291 291 293 292 295 310 306 302 300 295 290 290 287
213 226 232 230 232 247 253 262 267 283 281 284 290 293 283 277 279 283 289 289 288 297 303 306 305 300 299 294 289 288 288 289
231 240 249 246 259 259 264 278 294 291 286 289 288 285 287 293 291 293 298 298 304 303 299 303 297 297 297 294 293 292 291 290
171 258 250 253 257 276 292 300 301 301 289 282 282 290 295 293 304 309 304 303 295 302 298 296 299 301 301 297 293 291 289 286
217 260 276 271 282 302 312 305 297 295 290 289 293 293 298 301 306 306 308 307 311 308 305 304 303 302 300 297 295 291 292 292
271 288 290 290 296 307 303 294 303 301 297 297 298 301 301 305 308 308 309 310 305 303 303 303 304 304 302 300 299 298 296 295
254 249 270 302 301 302 304 300 297 299 303 302 305 306 310 309 305 306 304 303 303 303 304 304 303 303 306 305 303 293 292 291
275 298 314 313 317 317 316 316 310 306 302 303 302 304 305 305 299 304 304 298 303 308 307 309 307 307 306 306 304 295 295 292
322 346 332 320 310 309 312 317 319 307 299 302 303 303 306 305 301 304 306 312 312 307 307 310 309 308 305 301 293 291 289 291
287 295 291 292 293 298 302 308 308 299 301 303 302 300 301 302 307 307 307 309 310 310 308 309 309 305 300 293 288 288 289 287
310 290 287 286 293 301 292 304 307 306 305 302 300 300 301 306 307 306 308 311 310 310 312 314 311 307 301 295 292 290 283 287
267 273 292 301 301 298 306 312 308 306 301 297 299 299 299 304 305 306 307 309 313 319 323 321 315 308 305 297 293 292 290 286
288 291 305 307 310 311 312 310 306 307 310 307 304 299 305 309 310 310 313 319 322 320 317 314 313 310 309 308 304 299 296 302
299 304 314 312 315 316 316 314 308 316 316 309 317 312 309 313 311 315 319 319 319 320 315 311 310 308 306 301 303 303 302 298
303 306 316 317 318 319 320 317 317 319 299 295 314 310 310 315 317 320 320 318 318 318 316 312 309 307 304 301 306 306 304 300
307 315 316 319 321 320 318 316 316 308 309 308 311 301 291 298 304 317 312 309 313 313 315 316 313 309 308 307 310 309 305 301
317 321 324 312 315 319 313 305 315 306 306 305 305 296 299 298 311 314 305 298 312 314 315 312 313 317 313 310 311 309 305 303
327 324 317 310 320 316 311 316 316 310 299 304 298 312 296 320 314 315 296 307 311 313 310 312 316 313 312 308 309 309 308 306